Location: Cedar Brake
(32.2526°N, 97.8459°W)
Time: 20:32:22
(UTC+00:00)

Meteor 2-4 Rocket - Pass Details

Date: 22 April 2026
Orbit: 798 x 906 km, 81.2° (Epoch: 21 May)

Event Time Altitude Azimuth Distance (km) Brightness Sun altitude
Exits shadow 10:22:24 29° 273° (W) 1,431 4.4 -18.8°
Maximum altitude 10:22:55 30° 283° (WNW) 1,413 4.5 -18.7°
Drops below altitude 10° 10:27:35 10° 344° (NNW) 2,377 6.2 -17.9°
Sets 10:30:15 0° 355° (N) 3,308 7.1 -17.4°
